GFSNIL_sfc_temp_012.txt.gz
Temp
50 49 49 48 45 45 45 46 47 46 47 47 47 46 44 43 42 42 41 40 39 40
50 48 48 46 46 45 45 48 47 47 46 46 46 45 44 42 42 41 40 40 40 39
51 50 49 47 46 45 45 46 46 46 45 45 45 45 43 42 42 40 40 42 40 39
50 49 48 48 47 47 45 45 46 46 46 45 45 44 42 41 41 40 40 41 40 40
51 50 48 48 47 46 46 45 46 46 45 45 45 44 42 41 43 41 40 41 40 41
50 49 49 48 47 46 45 45 45 45 45 45 45 44 42 42 42 41 40 41 40 42
49 50 50 49 47 46 46 45 44 45 45 45 44 44 43 43 41 40 42 43 42 42
50 50 49 47 46 47 45 46 45 44 44 44 44 47 42 42 41 41 41 42 43 44
49 49 48 47 46 45 44 44 43 43 43 43 47 53 55 53 44 43 42 41 42 43
50 49 48 47 46 44 43 41 41 42 42 41 41 52 55 56 46 43 41 40 40 42
49 49 48 46 46 42 41 41 40 40 41 40 43 53 55 55 45 42 41 40 40 40
50 48 46 46 44 41 40 39 40 41 40 39 40 51 53 52 42 41 40 41 41 41
50 48 46 45 43 39 40 41 41 41 40 44 40 49 52 50 43 39 40 41 42 49
49 48 47 44 42 41 40 40 40 41 39 39 40 39 50 52 44 41 41 41 43 47

GFSNIL_sfc_temp_018.txt.gz
Temp
72 73 74 71 71 70 69 68 68 67 68 68 66 66 65 64 64 64 63 62 62 62
73 72 71 72 72 71 71 69 67 67 66 67 66 66 65 64 63 63 64 63 62 62
71 72 71 73 71 69 70 69 66 65 66 66 66 65 64 63 64 64 63 63 62 62
70 71 72 71 71 69 69 68 66 65 65 64 64 65 64 64 64 62 62 62 60 60
69 70 70 70 71 70 68 67 67 66 65 65 64 65 64 63 64 62 60 61 60 59
67 67 68 70 70 70 69 68 67 66 64 64 64 64 64 64 63 63 62 61 60 59
66 66 67 69 70 70 70 67 67 66 65 64 64 64 63 63 62 62 62 61 60 60
66 66 66 67 68 69 69 68 67 66 65 64 64 64 62 61 61 61 61 61 61 60
63 64 64 65 67 67 67 67 66 65 64 62 63 60 58 60 60 60 59 59 60 60
63 62 63 64 65 65 64 66 64 65 64 62 62 59 57 56 61 60 60 60 59 58
62 62 62 63 63 64 64 64 64 64 64 62 62 57 57 57 60 60 60 59 58 57
62 60 60 61 62 63 64 63 63 64 62 61 61 56 57 57 60 59 58 59 58 57
61 60 60 60 61 63 64 62 63 62 63 60 61 55 56 57 60 58 57 58 58 54
58 59 61 60 62 62 62 62 61 60 61 61 62 59 55 56 59 58 57 57 56 57

GFSNIL_sfc_temp_021.txt.gz
Temp
78 74 74 75 75 72 70 69 70 70 70 70 69 68 67 65 65 65 64 63 63 63
78 76 72 74 78 73 73 72 70 69 68 70 69 67 66 65 64 64 64 63 62 62
75 77 75 74 75 72 73 71 69 68 68 68 68 67 65 64 65 64 63 64 63 62
73 74 74 74 74 74 73 72 69 68 67 67 67 67 65 64 64 63 63 63 62 61
71 71 71 73 74 75 73 72 69 68 67 67 66 66 65 64 65 63 61 62 61 60
69 69 69 71 74 75 74 72 70 68 66 66 65 65 66 65 64 64 63 62 61 61
66 67 68 70 72 73 74 72 69 68 67 66 66 65 65 65 64 64 64 64 62 62
65 66 67 68 69 72 72 72 70 69 67 66 65 66 64 63 63 63 62 62 62 61
61 64 64 66 67 69 70 71 69 68 66 64 66 63 61 62 62 62 61 60 61 62
60 60 63 64 65 65 67 69 68 67 66 64 64 62 61 60 62 61 61 60 60 60
60 59 60 62 62 64 67 67 67 66 66 63 63 60 60 59 60 61 60 60 60 59
59 57 56 58 61 63 65 65 65 66 64 63 61 59 58 58 59 59 59 60 60 58
59 56 56 57 60 62 64 64 65 65 65 62 62 57 58 58 60 58 58 59 59 56
57 56 56 56 59 61 63 63 63 63 64 63 62 57 57 57 60 59 58 58 57 58

GFSNIL_sfc_temp_024.txt.gz
Temp
67 67 68 69 68 66 64 64 65 64 64 63 59 58 56 53 53 54 52 52 51 50
66 67 65 67 69 68 67 66 64 64 63 63 61 59 55 54 53 53 52 51 51 50
65 66 66 67 67 67 66 65 64 62 63 61 61 59 56 53 53 52 51 52 51 50
64 64 66 66 63 66 67 66 63 63 62 61 60 60 57 55 54 53 51 52 51 51
63 63 64 63 63 63 65 67 65 63 62 62 61 60 58 56 57 54 51 51 51 51
61 61 62 63 63 65 66 68 66 63 61 61 60 59 58 58 56 54 52 51 51 51
57 58 59 61 62 64 67 68 65 62 61 61 60 60 59 58 54 54 53 53 52 52
54 57 58 57 60 63 65 67 66 62 61 60 60 61 58 57 55 52 51 52 54 52
53 56 55 55 54 59 61 63 64 62 60 59 62 62 61 58 54 53 52 50 51 53
58 55 56 55 52 52 55 61 62 62 60 58 58 63 62 60 53 51 50 50 50 53
56 55 56 54 50 50 50 59 60 61 59 57 57 62 62 61 51 50 50 50 50 49
55 54 55 53 49 49 49 54 60 60 58 56 56 61 61 58 50 50 49 51 51 50
54 53 52 53 50 49 50 50 60 59 59 58 54 60 60 56 51 47 49 49 50 56
52 51 52 53 52 49 49 49 57 58 58 58 56 56 58 57 53 51 49 49 48 50

GFSNIL_sfc_temp_027.txt.gz
Temp
57 58 60 60 61 63 62 63 65 62 63 63 60 59 57 56 55 53 51 50 48 47
56 57 59 60 62 62 64 64 63 62 62 62 59 59 58 56 55 55 52 50 49 48
55 56 58 60 60 61 63 61 63 62 62 61 60 59 57 56 55 53 50 51 49 47
54 55 56 58 59 61 61 62 64 63 61 60 59 58 57 56 54 54 51 50 51 48
57 56 54 54 58 59 59 63 64 62 62 61 61 59 58 55 56 54 51 50 49 50
56 54 52 52 56 58 58 60 63 64 62 62 61 60 57 57 56 55 54 51 51 50
55 51 52 52 55 56 56 57 59 58 63 62 62 60 57 56 55 53 53 53 51 50
51 53 52 51 54 55 55 55 56 54 59 62 61 60 56 56 53 52 51 51 52 50
54 52 55 53 53 54 53 53 52 51 55 59 62 61 59 56 53 53 51 50 49 50
55 55 52 50 51 53 50 50 48 49 53 58 60 62 61 59 55 52 52 50 49 51
54 52 52 49 49 51 50 48 47 48 50 59 59 62 61 59 53 51 49 49 48 48
52 51 49 48 48 49 49 48 47 48 49 57 57 61 61 57 52 49 48 49 48 47
52 50 48 48 49 49 49 49 49 48 49 57 58 60 61 54 53 48 48 47 48 54
51 49 49 49 50 49 48 48 48 48 49 54 59 59 59 57 54 51 49 48 46 49

GFSNIL_sfc_temp_030.txt.gz
Temp
53 51 52 52 52 52 53 57 60 61 60 63 64 62 61 56 56 55 55 50 47 50
51 52 52 53 54 52 54 58 60 60 61 62 64 63 60 59 55 55 55 53 51 50
53 53 54 54 52 53 53 54 56 58 60 60 62 62 60 59 56 54 53 53 50 47
54 55 53 54 55 53 53 53 56 58 60 59 60 60 61 59 57 53 53 54 51 49
55 55 51 54 54 53 52 53 54 56 58 60 61 61 60 58 58 53 53 51 51 50
52 51 53 54 52 54 53 51 51 53 54 56 57 58 59 59 58 54 55 53 52 51
52 52 53 53 52 52 54 50 50 51 53 54 56 57 58 59 58 56 55 54 53 51
50 52 50 48 52 53 52 53 53 50 50 51 54 57 59 59 57 55 54 51 52 50
52 51 47 51 50 48 51 52 51 50 49 49 53 55 57 60 57 54 52 49 49 51
51 49 50 50 48 48 48 47 48 48 48 48 50 53 55 60 56 53 52 51 49 50
49 50 47 48 48 43 44 45 46 47 47 47 49 52 55 60 53 54 52 51 49 51
50 47 47 47 45 44 45 46 46 47 48 46 47 52 54 57 52 51 50 49 50 50
48 46 45 47 44 46 47 47 47 48 48 48 46 51 56 55 51 49 48 47 48 54
48 45 46 43 47 47 46 46 45 46 48 46 47 49 54 56 50 49 48 48 47 49

GFSNIL_sfc_temp_033.txt.gz
Temp
50 49 49 49 49 49 49 50 52 52 53 54 56 57 58 58 58 60 57 58 55 50
49 49 49 51 51 50 50 53 52 53 52 53 56 57 57 58 57 58 58 57 54 54
49 48 50 48 47 49 51 51 51 51 52 52 55 56 56 56 58 57 55 57 54 51
49 52 50 51 52 53 52 50 50 51 51 52 53 54 54 56 58 58 57 56 53 51
51 52 49 51 51 53 52 52 52 51 51 51 52 52 53 54 57 57 55 55 53 52
47 47 48 49 52 52 52 51 51 52 50 51 51 50 51 53 55 56 56 56 53 53
46 47 48 49 50 51 50 51 51 50 50 51 51 52 52 52 53 55 55 55 54 55
49 48 45 46 48 48 51 51 50 49 48 49 50 52 51 51 51 53 53 54 54 54
49 49 47 47 46 46 47 47 48 46 48 48 51 54 55 54 51 53 53 50 51 54
51 49 48 47 46 45 43 45 45 44 45 46 47 53 54 55 51 52 53 52 50 53
50 49 48 46 45 42 41 42 43 44 44 45 47 53 54 54 51 51 52 54 52 52
49 48 46 45 43 41 41 42 42 44 44 44 45 52 53 52 48 49 49 49 51 52
49 46 46 46 42 42 40 42 44 45 46 48 46 50 52 51 48 47 46 46 47 54
47 47 47 46 43 39 41 43 42 43 45 45 46 46 51 51 48 46 44 44 45 51

GFSNIL_sfc_temp_036.txt.gz
Temp
48 46 47 47 47 46 46 48 50 50 51 51 51 51 50 50 52 54 54 54 57 55
48 47 46 47 47 47 47 51 50 50 50 50 50 50 49 49 51 53 54 55 56 55
48 48 47 47 46 46 48 49 50 49 49 49 50 50 49 48 50 51 53 55 56 55
50 49 48 46 47 47 48 47 48 50 50 49 49 49 48 48 49 50 52 53 53 54
52 51 47 46 47 47 46 48 48 49 49 49 50 49 48 47 49 48 50 52 51 53
50 49 48 47 48 48 48 49 47 48 47 48 48 48 48 48 49 49 49 51 50 52
49 48 48 48 48 48 49 47 47 47 48 48 48 49 48 49 49 48 50 50 51 52
50 49 50 47 47 48 48 48 47 47 47 47 48 50 47 48 48 47 47 48 51 51
49 49 48 46 46 46 47 47 45 44 45 46 49 54 55 53 50 49 48 47 49 52
48 47 48 48 48 46 45 44 43 42 43 43 44 52 54 54 51 52 52 50 48 51
46 47 48 48 47 44 44 42 41 41 42 42 44 52 53 54 51 50 51 50 48 50
45 45 46 45 44 43 42 40 40 42 41 41 43 50 52 51 49 48 48 47 48 51
43 42 43 44 45 45 45 44 43 42 42 45 44 49 51 51 47 46 47 46 48 52
40 41 41 43 44 45 42 42 38 40 42 41 43 43 49 51 47 46 46 45 46 49

GFSNIL_sfc_temp_039.txt.gz
Temp
59 59 59 59 58 59 59 60 60 60 61 61 61 61 61 60 60 60 60 60 61 56
60 58 57 58 59 58 59 59 59 59 59 60 60 61 61 60 60 60 60 60 60 60
58 59 58 58 57 57 58 58 58 58 59 58 59 60 60 59 60 60 60 60 60 60
58 58 59 57 58 58 57 58 57 57 57 57 57 59 59 60 59 58 59 59 59 59
58 57 57 57 57 58 55 57 56 57 56 57 57 58 58 57 59 58 57 58 58 58
54 55 55 55 56 56 56 55 56 56 55 55 56 56 57 56 56 57 57 57 57 57
52 53 53 54 55 55 55 54 56 56 55 55 55 55 55 55 56 56 57 57 56 56
51 52 52 53 53 54 54 54 55 54 54 55 55 55 55 55 55 55 54 55 55 55
48 49 49 51 51 52 52 52 53 52 52 51 54 55 54 55 55 55 54 53 54 56
48 47 47 49 49 49 50 51 50 50 50 50 52 53 54 55 55 54 54 54 54 54
46 45 46 47 46 47 49 49 49 49 49 48 50 51 53 54 54 54 53 53 53 51
43 43 42 40 43 45 47 47 47 48 47 47 48 50 51 52 51 50 50 51 52 51
42 40 39 40 39 43 43 43 45 47 48 48 48 49 50 51 50 48 49 49 51 52
42 40 40 41 41 40 41 44 45 45 46 47 47 48 49 49 48 46 46 46 48 50

GFSNIL_sfc_temp_042.txt.gz
Temp
67 66 66 66 66 65 65 66 67 68 67 68 68 68 67 66 66 67 66 65 66 66
66 65 64 64 65 65 65 65 65 65 65 66 66 66 66 65 66 66 67 66 66 66
64 64 64 64 63 63 64 63 63 63 63 64 65 66 65 64 66 65 66 66 65 65
61 62 63 62 62 62 62 63 62 62 62 63 63 65 64 64 65 64 64 65 64 64
60 60 60 60 61 62 61 62 62 61 61 62 63 63 63 62 64 63 62 63 63 62
56 56 56 57 58 59 59 60 61 60 59 60 61 61 62 63 62 63 63 63 63 62
54 54 54 55 56 56 58 57 58 59 58 58 59 60 61 61 61 61 61 62 63 62
54 54 53 52 53 55 55 56 56 56 57 57 57 58 55 56 59 60 60 61 62 61
50 51 50 50 51 51 51 52 53 52 53 53 56 56 56 56 58 59 59 58 60 61
48 49 47 46 47 48 48 50 50 52 51 49 53 55 54 54 55 57 59 59 59 59
49 46 45 43 43 45 45 47 48 50 51 50 52 53 53 53 54 55 57 58 58 58
46 43 43 41 41 41 43 43 46 48 49 49 51 53 52 52 53 52 55 57 57 57
44 43 41 40 40 41 42 43 43 43 47 48 48 51 52 52 52 52 54 56 56 54
43 42 41 41 40 41 41 41 43 44 47 48 50 50 52 51 52 52 52 52 53 55

GFSNIL_sfc_temp_048.txt.gz
Temp
56 53 53 53 55 56 56 57 56 59 57 59 60 60 58 57 54 53 53 55 57 57
55 54 54 55 56 56 56 58 59 57 57 58 59 58 57 55 53 55 56 56 53 55
53 54 55 55 54 54 55 55 55 55 56 56 57 56 55 55 56 55 56 58 55 56
53 54 54 54 53 54 54 54 54 54 54 54 55 56 56 56 56 54 56 58 56 56
54 53 52 53 54 54 53 53 53 53 52 52 52 53 54 54 55 54 55 57 57 56
51 51 51 51 51 52 50 50 50 51 51 50 50 51 52 53 55 54 55 56 55 57
49 50 50 49 49 49 51 50 50 50 50 49 49 50 51 52 52 52 53 55 54 54
49 48 48 48 49 49 49 49 49 49 49 48 48 50 49 51 51 50 50 52 53 52
47 47 46 48 48 48 48 48 47 46 46 44 47 48 50 50 48 49 48 48 49 50
47 46 47 47 47 46 45 46 44 44 43 42 44 47 48 50 48 47 47 46 46 49
47 46 46 45 44 44 44 42 42 42 42 42 43 47 50 51 48 46 46 47 47 46
46 44 44 42 42 42 42 41 41 41 41 41 43 47 49 49 46 45 45 47 48 48
45 43 42 42 41 42 42 42 42 41 42 43 41 47 49 49 45 43 43 45 46 51
44 43 43 42 42 41 41 41 41 41 43 42 44 44 49 50 45 43 43 44 44 46

GFSNIL_sfc_temp_051.txt.gz
Temp
51 48 48 48 48 47 47 48 50 50 51 51 52 53 53 53 52 48 50 49 48 51
49 49 48 48 48 47 48 53 54 50 50 52 52 53 53 53 53 51 51 48 48 50
48 49 48 48 47 47 48 50 51 50 50 49 51 51 50 50 52 52 52 53 52 52
47 48 48 47 47 49 49 47 48 49 49 49 50 50 49 49 50 51 53 53 52 51
47 46 45 45 48 46 48 48 49 49 48 48 49 49 48 47 48 48 50 51 52 52
44 44 46 43 46 48 48 48 48 48 47 47 48 48 48 47 47 48 49 51 51 52
43 44 42 46 46 47 47 47 48 49 48 47 48 48 47 47 46 46 48 50 51 51
43 45 46 45 46 47 49 49 49 48 47 47 47 48 47 46 46 45 46 48 50 49
44 45 44 45 45 47 47 47 46 46 46 45 46 48 48 48 45 45 44 43 45 48
44 44 44 46 46 45 45 45 44 44 44 43 44 48 49 48 46 45 44 44 44 46
43 43 44 45 44 44 44 42 41 42 43 43 44 47 47 49 46 45 45 44 45 44
43 43 43 42 42 42 41 41 41 42 42 42 43 46 47 47 44 42 43 44 46 46
45 43 42 42 41 42 42 41 42 41 42 43 42 46 47 47 43 40 41 43 44 49
45 43 43 42 42 42 41 41 40 40 41 41 43 44 47 48 45 42 41 41 42 45

GFSNIL_sfc_temp_054.txt.gz
Temp
48 46 46 45 45 44 44 45 47 47 48 48 50 49 48 47 47 47 48 47 48 49
47 46 45 46 45 44 45 49 51 48 46 46 47 47 47 47 47 46 46 48 47 48
46 46 46 44 44 44 45 45 45 45 46 46 47 48 48 47 48 46 47 49 49 49
45 45 44 43 44 44 44 44 46 47 47 47 47 47 46 46 46 46 46 47 47 48
44 43 42 41 42 43 44 46 46 46 46 46 47 47 45 45 46 45 44 45 46 46
43 42 41 41 42 45 45 45 46 46 46 46 46 46 46 46 45 45 45 45 45 45
40 41 40 41 45 45 45 44 45 46 48 48 46 46 46 45 45 44 46 47 45 45
42 41 42 43 44 44 46 47 47 47 47 47 47 48 46 45 44 45 43 46 46 47
43 42 43 43 43 44 45 46 46 45 45 44 46 48 49 48 45 45 44 41 45 46
41 42 42 44 45 43 44 45 44 44 43 42 43 48 49 49 46 44 44 44 42 44
41 41 43 44 44 44 44 43 42 42 43 42 44 47 48 49 46 44 44 43 42 43
41 40 43 42 42 42 42 41 42 43 42 41 40 45 46 47 44 43 42 43 43 42
41 41 42 42 42 43 42 42 42 41 42 43 42 44 46 46 44 42 40 41 42 48
41 43 43 43 43 42 40 40 39 40 41 42 43 43 46 47 45 42 41 40 40 42

GFSNIL_sfc_temp_060.txt.gz
Temp
45 43 43 42 42 41 40 41 43 44 43 43 44 44 44 42 43 42 41 40 41 43
44 43 42 42 41 40 41 45 46 43 43 45 45 44 43 43 43 43 43 42 41 41
43 42 42 41 41 41 42 41 42 42 43 43 43 43 42 42 43 42 42 43 42 41
42 42 41 40 40 41 41 41 42 43 43 43 43 43 42 42 43 42 42 42 42 42
41 40 38 38 39 40 41 43 42 43 42 43 43 43 42 42 46 45 45 43 42 42
39 38 38 39 41 41 41 41 42 42 41 42 42 43 45 47 46 46 46 46 44 44
37 38 39 40 41 41 41 41 41 41 42 43 45 46 46 46 46 46 46 46 46 45
38 37 38 39 40 40 41 41 42 43 46 46 46 47 46 46 45 44 44 44 46 46
38 39 39 39 39 40 40 41 45 45 45 44 46 48 49 48 45 45 44 42 43 45
38 37 38 39 39 39 38 42 43 43 43 42 43 47 49 50 47 46 45 44 43 44
37 37 38 38 37 38 40 42 42 42 43 42 43 47 48 49 47 46 46 46 44 43
37 36 37 36 38 40 42 42 41 42 41 40 41 46 49 49 45 45 44 46 45 44
37 36 36 39 39 42 42 41 40 40 41 42 42 46 48 49 46 43 44 45 44 47
37 36 39 41 43 42 41 40 39 39 41 42 44 45 49 49 46 45 44 43 42 43

GFSNIL_sfc_temp_063.txt.gz
Temp
55 56 55 54 53 53 53 53 54 54 54 54 53 53 53 52 51 51 51 50 50 50
56 54 53 53 53 52 53 53 54 53 52 52 52 51 51 50 50 51 50 50 50 49
54 53 53 52 52 52 52 51 51 50 51 50 50 50 49 48 49 49 49 49 49 49
53 53 52 51 51 51 51 50 49 49 49 48 48 49 49 49 48 47 48 49 47 47
51 51 50 50 50 50 49 49 48 48 47 48 48 49 48 47 48 47 47 47 47 47
49 49 49 49 49 49 49 48 48 47 46 47 47 48 48 48 48 47 48 48 48 48
48 48 48 48 47 47 47 46 47 47 47 47 47 48 48 48 48 48 48 48 47 47
47 47 46 46 46 46 46 46 46 46 47 48 48 48 47 47 46 46 46 46 46 46
45 45 44 45 45 45 45 46 46 45 47 46 47 48 49 48 46 47 45 44 46 47
44 43 43 44 43 43 43 44 44 45 45 44 45 48 49 50 48 46 46 46 46 46
43 42 43 42 42 43 44 44 44 44 44 43 44 47 49 50 48 47 47 47 46 45
43 41 41 41 42 43 42 44 43 43 42 41 42 47 49 49 46 45 45 46 46 46
42 41 40 41 41 42 43 42 42 41 42 43 44 46 48 48 46 44 44 46 47 49
41 40 41 42 43 43 41 41 40 40 41 42 43 44 48 49 46 44 45 45 45 45

GFSNIL_sfc_temp_066.txt.gz
Temp
65 67 65 64 63 63 62 62 62 62 61 61 61 60 60 58 58 58 57 56 56 56
67 64 63 63 63 62 62 61 61 60 59 59 59 59 58 56 56 56 56 56 56 55
64 64 63 62 61 60 60 60 59 58 58 57 57 57 56 55 56 55 55 55 54 54
63 63 62 61 60 60 59 59 58 57 56 56 55 56 55 55 55 54 53 53 51 50
61 60 60 60 60 60 58 58 57 56 55 55 55 55 54 53 54 52 50 49 49 49
59 59 58 58 58 58 57 57 57 55 54 54 53 53 54 53 51 50 49 49 49 49
58 57 56 56 56 56 56 55 55 54 54 53 53 53 53 51 49 49 50 50 50 51
56 56 55 54 54 54 54 54 53 53 53 53 52 52 51 50 48 48 48 48 48 49
54 54 53 53 52 52 52 52 52 51 50 49 51 50 50 49 47 47 48 46 50 51
53 52 51 52 51 50 50 51 47 47 47 47 48 49 50 50 49 49 49 49 50 49
52 50 50 50 49 50 50 47 46 46 47 46 46 48 49 50 50 49 47 51 49 46
50 49 49 47 48 49 47 47 46 46 45 45 46 48 49 49 47 49 48 49 48 47
50 49 47 47 47 45 45 45 44 43 44 46 44 47 48 49 48 45 48 45 46 49
49 48 48 47 45 44 44 45 42 41 44 43 45 44 48 50 46 46 43 42 45 45

GFSNIL_sfc_temp_072.txt.gz
Temp
60 56 55 54 53 52 52 52 54 54 53 53 53 51 50 48 47 47 46 46 45 47
57 56 54 54 54 52 53 56 54 53 52 51 51 51 49 47 47 47 47 47 46 47
56 56 55 54 52 52 52 53 52 51 51 50 50 50 48 46 47 47 47 49 46 46
54 55 54 53 53 52 52 52 51 51 50 50 49 49 48 47 47 47 47 47 49 51
54 53 51 51 52 52 51 51 51 50 49 49 49 48 47 46 48 47 46 50 50 49
51 51 50 49 50 50 49 49 49 50 48 49 49 49 49 49 49 51 50 49 48 49
50 49 48 49 49 49 49 49 48 48 49 49 50 47 47 47 48 49 49 49 49 49
49 49 49 48 48 48 48 49 48 49 49 48 46 48 48 48 47 46 46 47 47 48
49 48 47 47 46 46 45 45 47 47 46 43 48 51 51 49 46 46 45 44 46 46
49 47 46 46 45 44 43 43 44 41 42 44 46 50 50 51 47 45 44 44 45 45
47 45 45 44 43 42 43 42 39 42 45 44 45 49 50 50 46 45 46 45 45 45
45 44 44 42 41 41 42 39 44 45 44 43 44 47 49 48 45 44 43 45 44 44
45 44 43 42 41 42 40 42 45 44 44 44 42 46 48 47 44 42 42 43 44 47
45 44 43 41 42 39 41 44 42 41 42 43 44 43 46 47 44 42 41 41 41 43

GFSNIL_sfc_temp_075.txt.gz
Temp
55 52 52 52 50 49 49 49 51 51 50 50 50 49 47 45 44 44 43 42 41 42
52 52 51 51 50 49 49 53 52 51 49 49 49 48 47 44 43 44 43 43 43 43
51 51 50 49 49 49 49 49 49 48 48 47 47 47 45 43 43 43 43 46 42 42
50 50 49 48 48 48 48 48 48 48 47 47 46 46 44 43 43 42 43 42 42 43
49 48 47 46 47 47 47 47 47 47 46 46 46 45 44 43 44 42 44 42 47 48
48 47 45 45 46 46 46 45 45 46 45 46 46 46 44 43 42 42 45 48 48 48
45 45 45 45 45 45 45 44 44 44 45 46 47 45 43 43 41 42 46 47 48 48
46 45 45 44 44 44 43 44 43 44 45 42 43 47 45 46 47 46 46 46 47 47
46 45 43 43 43 42 41 41 42 41 40 39 45 49 50 49 46 46 45 43 45 46
45 43 43 43 42 41 39 39 38 37 38 38 43 49 50 50 46 44 44 43 44 45
43 42 42 41 40 39 38 38 37 37 39 44 45 49 49 50 46 44 44 44 44 42
42 41 41 39 38 38 36 35 36 39 42 43 43 47 48 48 44 43 43 44 43 43
42 41 40 39 38 36 36 37 40 40 43 44 41 45 47 47 43 39 42 42 43 47
42 40 40 38 36 35 35 36 36 39 40 41 42 43 46 48 44 42 41 40 40 41

GFSNIL_sfc_temp_078.txt.gz
Temp
51 49 49 49 47 47 47 47 48 49 48 48 48 47 46 43 43 42 41 40 39 40
49 50 49 48 47 46 46 51 49 48 47 46 46 46 44 42 41 41 41 40 40 40
48 48 48 47 47 46 46 47 46 46 46 45 45 45 43 41 41 40 40 43 39 40
47 47 46 45 45 45 45 45 46 46 45 44 44 43 42 41 41 40 40 40 40 41
47 46 44 44 45 45 45 45 45 44 44 44 43 43 41 41 42 40 39 40 40 43
45 44 43 43 44 44 43 43 43 43 42 42 43 42 42 41 40 40 40 41 42 42
43 43 43 43 42 42 42 41 41 41 42 42 42 41 41 41 40 41 43 43 45 46
44 43 42 42 42 42 41 42 41 41 41 40 41 44 43 44 44 44 44 45 46 46
43 43 41 41 41 40 40 39 39 39 38 37 42 48 50 49 45 45 44 42 44 45
42 42 41 41 40 39 38 37 36 36 36 36 38 48 50 50 46 44 43 43 43 44
41 41 40 39 38 37 36 35 34 35 36 37 40 48 49 50 46 43 44 43 43 42
41 39 39 38 37 36 34 33 34 37 36 36 39 46 48 47 44 42 42 42 42 42
40 39 38 37 36 35 33 35 37 37 37 40 40 44 46 47 43 41 41 42 43 45
40 38 38 36 34 33 33 33 32 35 38 42 40 42 46 47 44 42 41 41 39 39

GFSNIL_sfc_temp_081.txt.gz
Temp
49 48 47 47 46 45 45 45 46 47 46 46 46 45 43 41 41 40 39 38 38 38
48 48 47 46 45 45 45 49 47 45 45 44 44 44 42 40 40 40 39 38 38 37
46 46 46 45 45 45 44 45 45 45 44 44 43 43 41 39 39 39 38 40 38 37
45 45 44 44 44 44 44 44 44 44 43 43 42 42 40 39 39 39 39 38 37 38
45 44 43 43 43 43 43 43 43 42 42 41 41 41 39 39 39 38 38 38 38 39
44 43 42 42 42 42 41 41 41 41 40 41 41 40 39 39 38 38 38 39 40 41
42 42 41 41 41 41 40 40 40 40 40 40 40 40 39 39 39 39 41 42 42 42
42 41 41 40 40 40 40 40 39 39 39 39 40 42 38 40 42 45 44 45 44 44
42 41 40 40 39 38 38 38 38 37 37 36 41 47 49 48 45 45 43 43 44 44
41 40 40 40 38 37 36 35 35 34 34 34 36 46 49 49 46 44 43 42 41 43
40 39 39 38 37 35 34 34 33 34 35 35 38 46 48 49 45 44 44 42 43 41
39 38 38 36 35 35 33 32 33 35 34 33 35 44 47 47 43 42 42 43 43 42
39 38 36 36 35 33 32 33 35 35 35 37 38 44 46 46 43 41 41 43 44 46
38 37 36 35 33 32 32 32 31 33 35 36 40 42 46 47 43 42 41 41 40 41

GFSNIL_sfc_temp_087.txt.gz
Temp
59 59 59 58 58 58 58 58 56 57 57 56 56 56 56 55 55 54 53 52 52 52
58 57 56 56 57 57 57 56 55 56 56 56 56 55 54 54 54 53 53 52 52 51
56 56 55 56 55 55 55 55 54 54 55 54 54 54 52 52 52 51 51 51 50 51
54 54 55 55 54 55 54 54 54 53 53 52 52 53 52 51 51 49 50 50 49 49
54 54 55 55 54 54 54 53 52 52 51 51 51 51 50 50 50 49 48 49 48 48
53 53 53 53 53 52 52 52 52 50 50 50 50 49 50 49 49 49 49 48 48 48
52 52 52 51 51 51 51 50 51 50 49 48 48 48 48 48 48 48 48 48 48 49
51 51 50 50 50 50 49 50 49 48 48 48 47 48 48 49 49 48 48 48 49 49
50 49 49 49 49 48 48 48 48 47 46 45 46 47 48 49 48 48 47 46 47 48
49 48 48 48 47 47 47 47 46 45 45 44 46 46 48 48 48 45 45 44 44 45
48 47 47 46 46 46 46 45 44 44 44 44 44 45 46 48 46 45 45 44 44 44
47 46 45 44 45 45 44 44 43 43 42 42 42 44 46 47 44 44 44 45 45 46
46 45 44 44 44 43 42 41 42 42 43 42 41 43 45 46 43 41 41 45 45 45
45 44 44 43 43 41 41 40 40 40 41 42 43 43 45 46 44 43 43 40 41 42

GFSNIL_sfc_temp_090.txt.gz
Temp
71 71 72 71 71 71 70 69 66 66 67 66 65 65 64 64 62 62 62 60 60 60
71 69 68 68 68 68 68 66 65 65 65 65 64 63 62 61 61 62 61 60 60 59
69 69 67 68 66 65 65 64 63 63 63 62 62 62 61 60 60 59 59 59 58 58
67 67 67 66 65 64 64 64 63 62 60 60 60 61 60 60 59 57 57 57 56 55
65 64 64 64 65 65 63 62 61 60 59 60 59 59 58 57 58 56 55 55 55 54
63 63 64 64 63 63 62 61 60 59 58 58 58 57 57 57 56 56 55 55 54 54
62 62 62 62 61 60 61 59 60 59 58 57 56 56 55 55 54 54 55 55 54 54
61 61 60 59 59 59 59 59 58 57 57 56 55 55 54 53 53 53 53 54 55 54
59 59 58 58 58 58 57 57 57 56 55 54 54 52 50 50 51 52 52 51 49 49
58 56 57 57 56 55 55 56 55 55 54 53 53 51 50 49 50 49 48 46 47 48
57 56 56 56 55 55 56 53 53 52 52 51 51 50 49 48 48 47 48 47 48 47
56 55 54 53 53 53 53 52 52 51 50 50 50 49 48 47 46 46 47 48 50 48
55 53 52 53 52 52 51 50 50 49 50 49 49 48 47 47 46 44 45 48 49 48
54 53 53 51 51 50 49 48 48 48 49 49 49 47 46 47 45 45 45 44 44 45

GFSNIL_sfc_temp_093.txt.gz
Temp
71 74 75 75 75 74 73 72 70 69 69 68 67 66 65 64 63 63 62 61 61 60
72 73 72 72 72 71 70 68 67 67 66 66 66 65 63 62 62 62 61 61 60 59
73 72 71 71 69 68 67 66 65 65 65 64 64 64 63 61 61 60 60 60 58 58
70 71 71 69 68 67 66 66 64 64 62 62 62 62 61 61 60 59 58 58 57 57
69 68 68 67 67 67 65 64 63 63 61 61 61 61 59 58 59 57 56 56 56 55
66 66 66 66 65 65 64 63 63 62 60 60 59 58 58 58 57 56 56 56 55 55
65 64 64 64 63 63 63 62 62 61 60 59 58 58 57 56 55 55 55 55 55 55
63 63 62 61 61 62 61 61 61 59 59 58 57 57 56 54 53 52 52 53 54 55
61 61 60 60 60 60 59 59 59 58 58 56 57 56 54 52 51 51 50 50 52 52
60 59 59 59 58 57 57 58 57 57 56 55 55 55 53 52 51 49 49 48 47 48
59 58 58 58 57 57 57 56 55 54 54 53 53 53 53 52 49 49 48 48 48 47
58 57 56 55 54 55 54 54 53 53 52 51 52 52 51 50 47 45 46 48 49 49
58 55 54 54 53 54 53 52 52 51 52 51 50 52 51 48 44 42 44 47 49 49
56 55 55 53 53 52 51 51 50 50 51 51 51 49 48 48 45 44 43 44 45 46

GFSNIL_sfc_temp_096.txt.gz
Temp
63 61 63 65 64 63 58 57 58 58 58 58 57 56 54 51 51 51 49 49 48 47
62 64 63 64 63 58 57 60 57 57 56 56 56 55 53 50 49 49 48 48 47 46
64 63 63 62 58 56 56 56 55 55 55 55 54 53 51 48 49 48 47 49 47 46
63 63 62 57 56 55 55 55 55 55 54 53 52 52 49 49 49 48 47 47 46 46
61 58 56 55 55 56 54 55 54 54 53 52 52 50 49 48 48 47 46 46 46 46
55 55 54 54 54 55 54 53 53 52 51 51 51 50 49 48 47 46 46 46 45 45
53 53 52 53 53 53 53 51 51 51 51 51 50 50 49 48 46 45 46 46 46 46
53 53 53 52 52 52 51 51 50 50 50 50 50 52 47 46 44 43 43 45 46 47
53 52 51 50 50 49 49 48 49 48 48 47 52 56 56 52 43 47 44 41 44 43
52 51 50 50 49 47 46 46 46 45 46 45 45 55 55 54 49 42 40 40 41 43
51 50 49 48 46 45 45 44 44 44 44 43 46 54 54 54 43 41 43 46 44 41
50 48 47 45 44 44 43 42 42 44 43 41 42 52 53 51 44 44 44 45 43 42
49 47 45 44 43 43 42 43 44 43 43 47 42 50 51 48 45 41 40 41 43 47
48 46 45 43 42 41 41 42 40 42 41 41 42 40 49 49 44 42 41 40 40 41

GFSNIL_sfc_temp_099.txt.gz
Temp
59 58 59 59 61 57 60 58 58 57 54 54 54 53 51 48 48 47 46 45 44 44
58 58 57 60 57 58 57 59 57 54 53 53 52 51 49 47 47 47 45 45 44 43
59 60 61 58 58 57 57 56 53 52 52 52 51 50 48 46 46 45 44 46 44 42
60 60 58 58 57 56 55 52 52 52 51 51 50 49 47 45 46 45 43 43 43 43
59 55 58 56 53 52 51 52 52 51 50 50 49 47 46 45 45 43 43 43 43 43
54 53 50 50 50 51 50 49 50 50 49 49 48 47 46 46 45 44 43 42 41 42
48 48 48 49 49 50 49 48 48 48 48 48 48 48 47 46 43 42 43 43 43 42
48 49 49 49 48 48 48 47 47 47 47 47 47 50 45 45 43 41 41 42 43 44
49 49 48 47 47 46 46 45 46 45 45 44 49 55 56 52 42 43 47 46 40 41
49 48 47 47 46 44 42 41 41 41 42 41 41 54 55 54 48 45 40 38 38 40
47 46 45 44 43 41 41 40 40 40 41 40 43 53 53 53 43 39 39 42 46 44
46 44 44 42 40 40 39 39 39 40 40 39 39 50 52 49 40 41 43 45 43 41
45 44 43 41 40 40 39 41 41 41 40 43 38 46 49 48 40 37 41 42 40 45
44 43 42 40 39 38 38 38 37 38 36 36 39 38 48 49 44 42 42 40 40 41

GFSNIL_sfc_temp_102.txt.gz
Temp
59 57 58 57 57 55 56 57 56 56 53 54 52 51 49 47 46 45 44 44 43 43
58 57 57 57 57 56 57 58 56 55 53 51 52 49 48 46 46 45 44 43 43 41
58 59 58 56 54 56 53 55 53 52 52 50 49 47 46 44 44 44 42 43 41 40
59 59 58 57 56 52 54 52 53 51 49 49 47 46 45 44 44 43 42 41 41 41
58 54 56 54 51 55 51 50 50 49 48 48 47 45 45 45 44 43 42 41 41 41
53 53 50 52 51 48 48 47 48 48 47 47 46 45 44 44 44 42 41 41 40 40
48 50 47 47 47 47 46 46 45 46 46 47 46 46 45 44 42 41 41 42 41 41
46 46 46 46 45 46 46 45 45 45 45 44 45 48 44 44 42 40 40 41 42 43
47 46 45 45 44 44 43 42 42 42 42 41 47 53 55 52 41 42 41 40 44 42
46 45 44 44 43 41 40 39 39 39 40 39 40 52 54 54 45 41 40 40 38 39
44 43 42 41 40 39 38 38 38 38 39 38 41 51 52 53 39 38 38 38 38 39
43 42 41 40 39 39 38 37 38 38 38 36 36 48 51 48 38 38 37 39 40 41
43 42 40 39 38 38 37 38 39 38 35 42 34 43 47 47 39 35 36 37 39 45
42 41 40 38 37 36 36 35 34 35 33 34 36 35 46 47 41 39 41 38 37 41

GFSNIL_sfc_temp_105.txt.gz
Temp
57 55 55 56 56 56 56 55 57 55 53 53 51 51 48 46 45 45 44 43 42 42
56 56 56 57 58 57 57 57 56 54 50 52 50 49 48 46 45 44 42 41 41 40
56 58 57 56 56 56 55 54 53 50 50 50 49 48 46 43 43 43 41 42 41 39
57 57 56 55 54 52 52 50 52 50 49 48 46 45 44 43 43 43 41 40 40 40
56 55 51 51 54 51 49 49 50 48 47 46 45 44 43 44 43 42 41 41 39 40
52 50 51 48 48 48 47 46 46 46 46 45 45 44 43 43 43 42 41 40 39 39
46 45 45 45 46 45 45 44 44 44 45 45 44 44 43 43 41 40 40 40 40 40
44 44 44 44 43 43 44 43 43 43 43 43 43 46 42 42 40 39 39 40 40 40
45 44 43 42 42 42 41 40 40 40 40 40 46 52 54 51 41 41 40 38 39 40
44 43 42 42 41 40 38 38 38 38 39 39 39 51 53 53 43 40 38 37 37 38
42 41 41 40 39 37 37 37 37 37 37 36 39 49 51 52 38 37 37 37 37 36
41 40 40 39 37 37 36 36 35 36 35 34 35 47 48 46 38 37 36 37 37 37
41 40 39 37 37 36 35 36 37 36 33 40 33 42 47 46 38 34 35 36 37 44
39 38 37 36 35 34 34 34 32 33 32 33 34 35 45 46 40 38 41 41 38 37

GFSNIL_sfc_temp_108.txt.gz
Temp
59 59 58 56 55 54 55 56 57 57 56 54 53 50 49 47 46 46 45 43 43 42
58 56 55 55 56 55 57 57 56 55 53 51 52 50 47 47 45 45 43 42 41 40
56 57 57 56 56 56 55 55 53 51 50 49 48 47 47 45 43 43 40 41 40 38
55 56 56 55 54 53 52 51 50 50 48 47 48 47 44 43 42 42 40 40 40 40
54 52 51 50 50 51 51 50 48 47 47 46 45 43 43 43 42 41 40 40 39 39
50 51 47 46 46 46 45 45 45 46 45 44 44 43 42 42 41 40 40 39 38 39
46 45 44 44 44 44 44 43 43 43 44 44 43 43 42 42 40 39 39 40 39 38
43 43 43 43 42 42 42 42 42 42 42 41 42 45 41 40 39 38 38 39 39 39
43 42 41 41 40 40 40 39 39 39 39 39 45 51 53 49 40 40 39 38 39 38
42 41 40 40 40 38 37 37 37 37 37 37 37 50 52 52 42 39 37 36 36 37
41 40 39 39 38 37 36 36 35 36 36 35 38 48 50 51 38 36 35 36 36 35
40 39 38 37 36 35 35 34 34 35 34 33 34 45 48 46 37 36 35 36 36 35
39 38 37 36 35 34 33 35 35 34 32 38 32 41 45 45 37 33 34 35 36 45
37 36 35 34 33 32 32 32 30 31 31 31 33 33 44 46 40 39 39 40 39 36

GFSNIL_sfc_temp_114.txt.gz
Temp
59 56 56 56 55 55 55 56 57 57 58 62 63 62 63 62 61 63 64 63 64 64
61 62 60 59 58 58 57 55 56 58 61 60 59 58 57 61 62 63 64 64 63 64
63 62 61 58 56 56 56 55 53 53 53 53 52 53 53 55 60 61 60 62 62 62
55 53 53 53 54 53 53 53 52 50 49 50 54 56 57 61 61 60 59 59 60 60
55 55 54 54 55 57 56 57 57 56 58 58 59 61 62 61 60 59 59 59 58 58
56 56 56 57 58 60 61 60 60 61 60 60 60 60 62 62 61 61 60 58 57 58
57 58 59 58 59 60 62 61 61 60 60 59 60 59 60 60 60 59 59 60 59 59
59 59 59 58 59 59 60 60 60 59 59 58 58 59 58 58 57 58 58 58 58 57
59 58 58 59 59 58 58 58 58 57 57 56 57 52 53 54 57 57 56 55 56 57
59 57 57 58 57 56 56 57 56 56 55 55 55 50 51 52 55 53 54 53 53 53
58 56 57 56 55 56 56 55 54 55 54 53 53 48 49 50 53 53 53 52 52 51
57 55 55 54 54 54 55 54 53 53 51 51 52 47 47 48 51 51 50 52 51 51
56 54 53 53 52 53 53 52 52 51 52 48 49 48 47 47 49 48 49 50 49 48
54 53 52 52 52 51 50 50 50 49 50 49 49 48 46 46 46 44 44 44 44 46

GFSNIL_sfc_temp_117.txt.gz
Temp
56 55 54 55 56 56 55 55 55 55 55 56 57 59 60 60 62 64 63 63 63 63
59 59 58 57 58 58 56 57 57 58 58 59 59 59 60 62 63 63 64 64 64 63
62 60 59 59 58 58 56 55 55 53 54 53 54 55 58 56 57 57 56 58 60 62
53 53 53 51 52 54 54 54 53 52 51 50 51 51 52 53 55 56 57 58 60 60
56 52 52 55 54 54 54 53 52 51 50 50 50 52 56 58 61 61 60 60 59 58
56 58 58 58 59 59 60 60 61 61 60 61 61 62 62 62 62 62 61 60 57 57
59 58 60 61 62 62 63 62 61 61 61 61 61 61 60 60 60 60 60 60 59 59
60 61 61 60 61 61 61 61 61 60 60 60 59 57 56 58 58 58 58 59 59 59
59 60 59 60 59 59 59 59 59 58 58 57 58 52 53 53 54 56 56 55 56 56
60 59 59 59 58 57 57 58 57 57 57 56 55 51 51 51 53 53 54 53 53 53
59 58 58 58 57 57 57 56 55 55 54 54 52 49 49 49 51 52 53 53 52 51
59 57 57 55 55 55 55 55 54 54 53 52 52 50 49 48 49 50 50 52 52 51
58 56 54 54 53 53 54 52 53 52 53 52 51 51 49 48 48 47 48 48 49 48
56 55 54 53 53 52 52 51 51 51 51 51 51 50 48 47 46 46 45 45 45 46

GFSNIL_sfc_temp_120.txt.gz
Temp
57 55 55 54 54 54 55 54 54 54 54 54 54 54 54 55 57 58 57 57 55 54
57 56 54 55 56 56 56 56 55 54 54 54 55 56 57 56 57 57 57 53 54 54
58 58 58 57 56 56 56 55 55 55 54 54 54 55 54 53 54 54 52 53 54 54
52 53 53 52 53 53 53 53 52 52 52 51 51 52 52 52 54 54 54 54 55 55
53 54 54 53 53 53 52 53 52 52 51 51 52 51 51 52 55 54 54 54 54 54
56 55 54 54 56 57 54 52 52 53 52 53 53 53 54 56 55 52 50 50 50 52
53 55 57 55 57 54 55 55 53 53 53 53 53 52 52 52 50 49 51 51 50 49
51 52 53 53 53 53 52 52 52 51 51 51 50 52 47 47 47 47 47 49 50 50
51 52 50 50 50 50 50 49 49 48 48 47 52 53 53 49 44 46 46 45 46 47
51 50 49 50 49 48 47 46 46 46 46 43 44 52 51 51 44 43 43 43 43 46
51 49 49 48 46 46 46 44 44 44 44 42 46 50 50 49 42 41 42 43 43 41
50 48 47 45 44 44 43 42 43 44 43 40 40 51 50 46 40 41 41 43 42 42
49 47 45 43 43 43 42 43 44 43 42 49 40 50 49 45 40 37 39 39 41 47
47 45 44 43 42 41 41 41 40 41 41 41 43 41 49 47 40 38 38 38 38 39

GFSNIL_sfc_temp_123.txt.gz
Temp
56 55 55 55 54 54 52 53 54 54 54 54 55 54 54 53 53 56 56 57 56 53
56 56 55 55 55 54 55 54 54 54 54 54 54 54 54 53 55 56 56 55 55 54
56 57 55 56 55 55 56 55 54 54 54 54 54 55 54 53 54 55 53 54 54 53
53 53 54 53 53 53 53 54 53 53 52 52 52 53 53 53 54 54 53 54 54 53
54 54 53 51 53 53 52 53 53 53 52 52 52 52 52 52 54 54 53 54 53 53
53 50 51 51 51 52 53 53 53 53 53 53 53 53 54 54 53 52 52 51 51 48
49 49 52 54 53 52 52 50 49 49 49 48 48 48 48 48 46 46 47 48 48 47
49 49 50 49 50 50 50 48 49 48 47 47 49 51 44 44 43 43 43 45 46 46
48 47 46 47 47 47 46 46 46 44 44 44 50 53 52 45 41 42 42 41 42 44
47 46 46 45 45 43 41 42 41 42 41 41 43 52 51 50 41 39 39 39 40 43
46 45 44 43 42 41 40 40 40 40 39 40 46 51 50 48 38 38 38 39 39 38
45 44 43 41 40 39 39 39 39 39 38 38 39 50 49 43 38 38 37 40 39 39
44 43 41 40 40 39 39 40 41 40 38 46 38 50 49 42 38 35 37 37 38 45
43 42 41 39 38 37 37 37 36 37 36 37 39 40 48 48 38 40 40 36 36 37

GFSNIL_sfc_temp_126.txt.gz
Temp
57 56 57 56 54 53 53 53 53 54 54 55 55 54 54 53 54 55 55 56 56 54
55 55 55 55 55 54 53 54 53 54 54 54 54 54 54 53 54 55 55 55 55 54
55 56 56 55 54 55 54 54 53 53 53 53 54 54 54 53 54 54 53 54 54 53
54 54 54 54 53 53 54 54 54 53 53 52 52 53 53 53 53 53 53 53 53 53
54 53 53 52 53 53 53 53 53 53 52 52 52 52 52 53 54 53 53 53 52 52
52 52 51 51 51 54 54 53 54 54 53 52 52 52 53 53 52 52 52 51 48 47
49 49 49 49 49 48 48 49 50 50 49 48 46 46 45 44 43 44 44 45 45 45
47 48 48 47 47 47 48 45 46 45 45 45 47 47 42 42 41 41 41 42 44 46
47 47 45 45 45 44 43 43 44 42 43 43 49 52 50 43 40 41 41 40 41 43
45 44 43 43 43 41 40 40 39 40 41 40 43 52 51 47 39 38 38 37 38 42
44 43 42 42 40 39 38 38 38 38 39 40 45 51 49 47 37 36 36 37 37 36
43 41 41 39 38 37 38 37 37 37 37 37 38 50 48 41 35 36 35 38 37 37
42 41 39 38 37 37 36 38 38 37 36 43 36 49 47 41 36 34 36 36 37 44
41 40 39 37 36 35 35 36 34 35 34 35 38 39 48 47 41 41 40 35 35 36

GFSNIL_sfc_temp_129.txt.gz
Temp
58 56 55 55 53 53 53 53 54 54 54 55 55 55 54 54 54 56 56 55 55 54
57 56 55 54 54 54 53 54 53 54 54 54 55 55 54 54 54 55 55 55 55 54
55 56 55 55 54 53 53 54 53 53 53 54 54 54 54 54 54 54 54 54 54 53
54 54 54 54 54 54 53 52 53 53 53 53 53 53 53 53 53 53 53 53 53 52
53 53 52 52 53 54 52 53 53 53 52 52 52 52 52 53 54 53 52 53 52 51
52 52 51 52 53 54 53 53 54 53 52 52 52 52 52 53 52 52 52 51 51 49
48 46 49 50 50 51 51 51 50 50 49 48 47 48 47 47 44 45 46 45 45 44
44 45 45 45 46 46 47 46 47 46 45 45 46 46 41 41 41 41 40 42 43 44
44 43 43 42 43 43 41 41 43 42 43 43 49 51 49 43 39 40 40 40 40 42
43 42 41 41 41 40 38 38 38 39 40 41 43 51 49 46 38 37 36 36 38 41
42 41 40 40 38 37 36 37 36 37 38 39 45 50 48 45 35 35 35 36 36 36
41 40 39 38 37 36 36 35 35 36 37 37 38 49 47 40 35 35 34 36 36 36
40 39 38 37 36 36 36 37 37 36 35 43 37 49 47 40 36 33 35 35 36 44
40 39 38 36 35 34 34 34 33 33 32 34 37 38 48 47 39 39 37 34 34 36

GFSNIL_sfc_temp_132.txt.gz
Temp
56 55 54 54 54 53 53 53 54 54 54 55 54 54 55 54 54 56 56 56 56 55
56 56 54 54 54 53 53 54 54 54 54 55 56 56 55 54 55 55 55 55 55 54
56 56 56 55 53 53 54 54 53 53 54 54 54 55 54 54 55 55 53 54 54 53
54 54 54 54 53 53 53 53 53 53 53 53 53 54 54 54 54 54 53 53 53 52
53 53 52 52 52 54 52 53 53 53 53 53 53 53 53 53 54 53 51 52 52 51
51 51 51 51 52 53 53 53 53 53 52 51 52 52 52 52 51 51 51 50 50 49
49 50 51 51 51 51 51 51 50 50 49 48 48 48 48 48 47 47 47 48 48 48
44 47 48 48 48 48 48 48 49 48 47 48 48 47 44 44 43 42 41 42 43 43
42 41 41 42 42 42 41 41 42 42 43 43 49 51 49 42 39 40 40 39 40 41
41 40 39 40 40 38 37 37 37 39 40 40 43 51 50 46 37 36 36 36 37 40
40 39 38 38 36 35 35 35 35 36 37 39 44 49 48 45 34 33 34 34 35 35
39 38 37 36 35 34 34 34 35 35 35 36 38 48 47 39 33 33 33 36 36 36
39 38 37 36 35 34 34 35 36 34 34 43 36 48 46 39 35 32 34 33 35 44
39 38 37 35 34 33 33 33 32 32 31 33 36 37 48 47 36 35 34 33 33 35

GFSNIL_sfc_temp_135.txt.gz
Temp
57 56 56 56 54 53 53 54 56 55 54 56 58 59 61 63 63 65 59 62 62 64
57 57 55 55 55 53 54 56 56 54 54 56 56 56 61 61 59 61 58 57 57 59
56 57 56 56 54 54 54 54 53 54 54 55 56 56 56 56 56 56 55 55 56 55
57 57 56 55 54 53 53 53 53 53 53 53 53 54 54 54 55 55 55 54 55 54
54 56 55 54 53 55 53 54 53 53 53 53 54 55 56 56 56 56 54 54 53 52
52 52 52 53 54 55 54 54 54 53 52 52 52 53 54 55 54 54 54 54 53 51
52 52 52 52 53 53 53 52 51 51 50 50 50 50 51 51 51 52 52 51 51 53
49 51 51 51 51 52 52 52 51 51 50 50 50 49 47 48 49 49 49 50 50 50
50 50 49 49 50 50 49 50 50 50 51 51 52 52 50 48 48 47 48 47 48 49
49 48 48 49 49 48 47 49 48 49 50 50 51 51 50 47 46 45 46 47 47 48
49 47 47 47 46 46 48 48 47 48 49 49 50 50 48 46 45 45 45 46 46 46
48 46 46 45 45 45 46 46 46 47 47 48 49 48 46 45 45 44 44 45 46 46
48 47 46 45 44 44 46 45 45 44 46 47 48 48 47 45 45 44 44 44 44 45
47 47 46 44 45 44 44 44 44 43 44 45 46 48 48 46 46 45 44 44 44 46

GFSNIL_sfc_temp_138.txt.gz
Temp
58 57 57 57 57 56 56 55 56 55 56 58 63 66 70 70 72 73 73 72 73 72
58 58 57 56 57 55 55 54 55 54 54 55 57 59 65 68 69 70 72 71 69 66
60 59 57 56 55 55 54 54 54 54 53 54 55 57 57 58 61 62 62 62 63 59
60 60 59 58 57 56 55 54 54 54 53 53 53 54 55 55 56 55 55 55 56 55
56 57 56 55 56 57 55 57 55 56 54 54 54 55 55 55 55 55 54 54 53 52
54 53 53 55 56 58 58 57 58 58 58 58 58 57 57 57 57 56 56 55 55 53
53 53 54 54 55 57 58 58 57 55 55 54 55 54 55 54 53 52 53 52 52 52
51 51 52 52 53 53 53 53 53 52 52 52 51 51 50 51 51 50 50 52 53 53
53 56 57 58 58 57 56 56 56 55 55 54 53 52 52 52 53 54 53 52 54 56
59 58 58 59 58 57 57 58 57 56 56 55 54 52 52 52 54 54 54 54 53 53
59 57 58 58 57 58 58 56 56 55 56 54 53 51 50 51 53 53 53 53 53 53
58 57 57 56 56 57 56 56 56 56 55 54 52 49 49 52 53 52 51 52 52 53
59 57 56 55 54 56 56 54 55 54 55 52 52 48 48 52 53 51 51 51 50 46
58 57 56 55 55 54 54 53 53 52 53 54 53 50 48 48 52 51 50 50 50 51

GFSNIL_sfc_temp_144.txt.gz
Temp
59 58 57 57 57 57 56 55 55 55 56 58 61 63 65 64 65 66 66 66 64 60
57 57 57 56 56 55 56 56 56 55 55 56 58 60 62 61 62 63 65 64 61 58
56 56 56 56 54 54 54 55 55 54 54 54 55 57 57 57 60 59 56 60 58 57
55 55 54 54 54 53 53 53 53 53 53 53 53 53 54 54 55 55 55 54 54 53
55 55 54 53 53 54 53 54 53 53 53 52 53 53 53 53 54 54 54 53 52 51
54 54 53 53 54 55 55 54 54 54 53 53 53 53 53 53 53 53 53 53 52 50
54 54 55 56 56 56 56 55 54 53 53 53 53 53 54 53 53 52 53 53 52 51
54 54 55 54 54 55 53 53 53 52 52 51 51 51 48 49 49 48 49 50 50 51
53 53 51 52 52 53 53 53 53 52 52 51 53 55 54 52 50 49 49 49 48 51
55 54 53 54 54 53 51 50 48 47 47 46 48 56 56 54 48 47 48 47 47 50
54 51 51 50 48 47 47 46 46 46 45 44 50 55 56 55 46 45 46 46 46 45
52 50 50 48 47 47 46 45 45 45 43 41 43 54 55 50 44 44 44 44 43 43
52 50 48 47 46 46 46 46 47 45 43 48 40 52 53 49 44 41 42 41 42 50
51 49 48 47 46 45 45 45 44 44 43 41 41 43 51 52 45 43 42 42 41 42

GFSNIL_sfc_temp_147.txt.gz
Temp
59 58 57 57 57 56 56 56 56 55 57 58 59 62 65 63 63 64 63 62 59 57
58 57 56 56 56 56 56 55 55 55 55 56 57 60 62 61 60 63 61 59 57 55
56 56 56 55 54 54 56 56 55 54 54 55 55 57 58 57 58 59 58 58 58 56
54 55 55 54 53 53 54 54 54 54 53 53 54 55 55 55 56 55 54 54 54 53
54 54 53 53 53 54 53 53 53 53 53 53 53 53 54 54 55 54 53 52 52 51
54 53 52 53 53 53 53 53 53 53 53 53 53 53 53 53 53 52 52 52 51 50
53 54 54 54 54 54 54 53 53 53 53 53 53 53 53 52 52 51 51 52 51 51
53 54 54 54 53 52 51 52 52 51 51 51 51 51 50 50 48 48 48 49 50 50
52 52 51 52 52 50 49 50 50 50 51 51 53 55 54 51 49 50 49 48 50 52
52 52 52 53 53 52 50 48 47 48 49 49 52 56 55 53 48 46 46 46 47 49
53 52 53 50 45 43 43 42 42 42 43 45 51 56 55 52 44 43 43 43 44 43
50 47 46 45 43 42 43 42 40 41 40 41 44 55 54 47 42 42 40 42 42 42
49 48 46 44 43 42 42 43 43 40 39 47 41 55 53 46 42 38 39 39 42 49
49 47 45 43 42 41 41 42 41 39 38 38 40 45 53 51 42 40 39 39 39 41

GFSNIL_sfc_temp_150.txt.gz
Temp
58 57 56 55 58 57 57 57 57 59 62 61 62 61 61 63 63 64 63 61 60 58
57 57 56 56 56 56 55 55 56 58 57 59 60 61 62 62 61 62 60 59 58 56
56 56 55 55 54 55 55 55 55 55 55 56 56 56 58 57 58 58 56 57 56 54
54 55 54 54 54 54 55 55 54 55 54 54 54 54 55 55 56 55 54 54 54 52
54 54 53 53 53 54 53 54 54 54 54 54 54 54 55 54 54 54 53 53 53 52
53 53 52 52 53 53 53 53 54 54 53 53 53 53 53 54 54 53 53 52 52 51
53 53 52 53 53 53 53 53 53 53 53 53 53 53 53 52 51 51 50 51 50 50
53 53 53 52 52 52 51 52 52 51 51 51 52 52 50 50 50 49 48 48 49 49
52 52 51 50 50 51 51 51 51 51 51 51 53 54 52 50 48 48 48 48 50 52
52 51 51 51 50 47 46 46 48 50 51 50 50 56 55 53 48 47 47 47 48 49
52 51 52 50 47 43 41 41 42 47 47 46 51 55 54 51 44 43 42 43 43 42
53 50 48 43 40 40 41 39 39 40 42 43 45 54 52 46 41 40 39 41 42 42
50 46 43 42 40 39 39 40 41 40 40 48 43 53 52 44 41 37 38 38 41 49
46 45 43 40 40 39 39 38 37 37 37 39 42 46 52 49 40 39 37 38 38 41